Location: Nordstemmen
(52.1628°N, 9.7867°E)
Time: 07:38:54
(UTC+00:00)

Daily predictions for brighter satellites

Satellite Brightness Start Highest point End
(mag) Time Altitude Azimuth Time Altitude Azimuth Time Altitude Azimuth
IRAS Rocket 4.3 20:21:37 10° NNE 20:27:17 77° ESE 20:32:52 10° SSW
USA 32 4.2 20:27:26 10° S 20:32:34 63° E 20:37:44 10° NNE
Cosmos 1954 Rocket 4.2 20:32:53 10° NNW 20:38:11 75° WSW 20:43:25 10° SSE
Ariane Rocket 4.0 20:33:21 10° S 20:38:12 44° W 20:43:06 10° NNW
Cosmos 1656 3.8 20:35:19 10° NNW 20:40:46 67° NE 20:46:15 10° SE
CZ-2C R/B 4.2 20:37:58 10° NNE 20:42:25 44° E 20:46:45 10° S
USA 267 3.8 20:37:03 10° ENE 20:42:54 33° SE 20:48:42 10° SSW
NOSS 2-1 (C) 4.0 20:39:56 10° NW 20:44:12 74° SW 20:50:12 10° SE
Meteor 1-24 Rocket 3.6 20:39:13 10° S 20:44:32 85° ESE 20:50:00 10° NNE
Cosmos 1850 Rocket 4.4 20:40:36 10° NNW 20:45:45 54° ENE 20:50:50 10° SE
Cosmos 2315 Rocket 4.3 20:46:45 10° SSW 20:53:05 76° W 20:59:26 10° N
Helios 1A Rocket 3.2 20:50:17 10° S 20:54:19 67° WSW 20:58:25 10° NNW
NOSS 2-1 (D) 4.1 20:50:16 10° NW 20:54:34 64° SW 21:00:33 10° SSE
Cosmos 1833 Rocket 3.9 20:53:40 10° SSE 20:58:02 24° ESE 21:02:25 10° NE
SL-8 R/B 3.8 20:53:38 10° W 20:58:21 56° S 21:03:04 10° ESE
ARIANE 5 R/B 2.7 20:55:15 10° SSE 20:59:42 75° ENE 21:04:10 10° NNW
ATLAS 5 CENTAUR R/B 4.4 20:49:49 10° NW 21:02:17 34° WSW 21:06:38 10° S
SPOT 5 3.2 20:59:00 10° S 21:03:22 55° WSW 21:07:39 10° NNW
Cosmos 1025 Rocket 3.9 21:01:13 10° SSW 21:05:23 50° WNW 21:09:35 10° N
Lacrosse 5 rocket 2.6 21:02:50 10° WNW 21:06:05 26° SW 21:09:19 11° S
Cosmos 2074 Rocket 4.1 21:01:44 10° N 21:08:04 86° ENE 21:14:20 10° S
Spot 2 Rocket 4.1 21:04:08 10° S 21:09:06 53° W 21:14:08 10° NNW
Lacrosse 4 Rocket 4.3 21:07:06 10° W 21:10:20 22° NW 21:13:32 10° NNE
RESURS DK-1 2.5 21:07:45 10° NNW 21:11:54 68° NE 21:15:36 13° SE
Cosmos 1452 Rocket 3.8 21:09:10 10° S 21:14:12 48° ESE 21:19:16 10° NE
Cosmos 1271 Rocket 3.8 21:10:27 10° NNW 21:14:15 42° W 21:18:00 10° SSW
Tiangong 3.3 21:13:44 10° SSW 21:14:40 11° S 21:15:07 11° S
ATLAS 2AS CENTAUR R/B 3.2 21:08:33 10° NW 21:15:24 50° WSW 21:21:29 11° SSE
Cosmos 2082 Rocket 3.9 21:15:47 10° SE 21:18:53 16° E 21:22:09 10° ENE
USA 234 3.3 21:12:50 10° ESE 21:19:25 85° SSW 21:26:02 10° WNW
Cosmos 1607 4.0 21:19:54 10° SW 21:26:09 83° NW 21:32:22 10° NE
Lacrosse 5 2.7 21:23:53 10° WNW 21:28:33 37° SW 21:32:24 14° SSE
Nadezhda 1 Rocket 4.1 21:22:54 10° S 21:28:49 63° E 21:34:50 10° NNE
Cosmos 2154 Rocket 4.0 21:25:13 10° N 21:31:30 90° ENE 21:37:10 13° S
Cosmos 1536 Rocket 3.7 21:27:21 10° SSW 21:31:40 75° W 21:36:03 10° N
USA 276 2.6 21:32:12 10° SW 21:34:56 32° SSE 21:37:40 10° E
Cosmos 2228 3.1 21:32:19 10° NNW 21:36:33 73° W 21:40:08 14° S
Cosmos 1606 Rocket 3.5 21:32:30 10° N 21:36:51 77° E 21:40:15 16° SSE
Cosmos 2344 4.2 21:28:44 10° NW 21:37:17 87° NE 21:49:09 10° SE
Terra 2.8 21:34:00 10° SSW 21:38:30 41° W 21:43:01 10° NNW
FALCON 9 DEB 3.1 21:35:57 10° W 21:39:13 77° N 21:42:30 10° E
SJ 16-02 4.0 21:40:32 10° NNE 21:42:23 12° NE 21:44:14 10° ENE
Cosmos 1825 4.2 21:44:54 11° ESE 21:46:46 15° E 21:48:59 10° NE
Cosmos 1900 4.4 21:41:44 10° NW 21:46:57 87° NE 21:51:13 15° SE
Cosmos 2084 Rocket 3.5 21:48:43 10° NW 21:52:33 64° NE 21:56:07 13° ESE
Cosmos 2084 3.9 21:50:04 10° WSW 21:53:51 57° NW 21:57:44 10° NE
COSMOS 2406 3.9 21:49:46 16° SSE 21:53:54 37° ESE 21:59:09 10° NE
X-37B 2.1 21:51:48 10° SW 21:53:00 16° SSW 21:53:00 16° SSW
Cosmos 2369 3.9 21:50:51 10° NNW 21:56:37 74° ENE 22:01:22 15° SE
TSX-5 4.5 21:53:37 10° SSW 21:58:10 90° ESE 22:04:09 10° NE
SL-16 R/B 3.9 21:53:46 10° NNW 21:58:41 29° NE 22:03:34 10° E
Cosmos 1726 Rocket 3.6 21:57:43 10° NNW 22:02:03 78° W 22:05:09 19° S
Cosmos 968 Rocket 3.6 21:58:24 10° NNW 22:03:37 73° ENE 22:07:37 17° SSE
SL-8 Rocket 4.2 21:57:56 10° N 22:04:12 67° ENE 22:09:01 17° SSE
Cosmos 1703 4.4 22:03:49 10° SW 22:07:27 40° WNW 22:11:08 10° N
Cosmos 1980 Rocket 2.3 22:01:54 10° NNW 22:07:40 78° ENE 22:12:13 16° SE
Spot 4 3.9 22:06:05 19° SSE 22:09:33 76° ENE 22:14:22 10° NNW
Meteor 1-11 4.4 22:05:47 17° S 22:10:01 58° E 22:15:30 10° NNE
Cosmos 1697 Rocket 3.0 22:05:04 10° NW 22:10:37 59° WSW 22:14:40 18° S
Cosmos 2218 Rocket 4.2 22:07:41 10° N 22:14:06 68° ENE 22:19:02 18° SSE
ALOS 2 3.0 22:11:52 18° SE 22:14:57 55° ENE 22:19:16 10° N
Cosmos 1328 4.0 22:12:23 16° SSW 22:15:34 73° W 22:19:36 10° N
Cosmos 1892 3.0 22:13:39 22° SSE 22:15:44 49° E 22:19:22 10° NNE
Cosmos 2366 rocket 4.1 22:13:04 10° N 22:19:24 73° ENE 22:24:11 18° SSE
Cosmos 2341 Rocket 4.1 22:14:23 10° NNW 22:20:47 83° W 22:25:37 18° S
ASTEX 1 3.7 22:20:43 10° N 22:25:41 65° W 22:29:51 15° SSW
Cosmos 1633 4.4 22:24:46 15° ESE 22:26:14 19° E 22:28:44 10° NE
USA 267 3.2 22:19:55 10° ENE 22:26:30 83° SSE 22:33:04 10° WSW
ADEOS Rocket 3.6 22:23:16 17° SSE 22:29:03 76° ENE 22:36:45 10° NNW
Cosmos 1486 Rocket 4.4 22:25:50 10° NNW 22:31:01 60° ENE 22:35:07 16° SE
Cosmos 2058 Rocket 3.3 22:28:56 10° NNW 22:33:18 65° W 22:36:09 21° S
Cosmos 2322 Rocket 3.5 22:33:30 10° NNW 22:38:45 37° NE 22:43:59 10° ESE
Cosmos 1892 Rocket 3.9 22:36:30 16° SSW 22:39:54 62° WNW 22:44:17 10° N
SL-8 R/B 4.4 22:36:03 10° W 22:40:25 35° SSW 22:42:54 21° SSE
Cosmos 1833 Rocket 2.9 22:35:50 10° SW 22:41:27 72° WNW 22:47:06 10° NNE
Cosmos 2278 3.8 22:35:59 10° NNW 22:41:45 84° ENE 22:46:07 18° SSE
H-2A R/B 3.6 22:38:32 10° NNE 22:42:44 64° ESE 22:45:11 24° S
Cosmos 1959 Rocket 4.5 22:38:56 10° NNW 22:45:05 81° W 22:49:27 20° S
GP-B 3.9 22:42:21 10° N 22:46:35 45° W 22:49:54 16° SSW
Cosmos 1408 2.8 22:45:59 21° SSW 22:48:04 57° WNW 22:51:29 10° N
Cosmos 807 4.4 22:45:35 10° N 22:49:10 69° ENE 22:50:35 29° SSE
RESURS DK-1 4.4 22:46:42 10° WNW 22:49:25 17° WSW 22:51:26 13° SW
ATLAS 5 CENTAUR R/B 2.9 22:50:40 17° SE 22:51:19 18° ESE 22:54:06 10° ENE
Aureole 1 Rocket 4.4 22:46:50 10° NNW 22:53:27 80° ENE 23:00:09 16° SSE
Cosmos-2242 3.5 22:49:32 10° N 22:53:42 51° ENE 22:56:21 21° SE
Cosmos 1626 Rocket 3.5 22:54:02 24° S 22:56:33 73° E 23:00:54 10° NNE
Cosmos 2181 Rocket 4.0 22:52:47 18° SSW 22:57:27 84° W 23:03:44 10° N
Cosmos 1867 3.6 22:53:26 10° NW 22:58:51 64° SW 23:02:32 21° SSE
Cosmos 2082 Rocket 2.2 22:57:35 17° SSW 23:02:04 79° ESE 23:07:48 10° NNE
USA 234 4.0 22:59:13 20° S 23:02:59 35° SW 23:08:55 10° WNW
Cosmos 1503 Rocket 4.2 23:02:26 10° NNW 23:07:47 72° ENE 23:11:50 17° SE
Okean 1-7 Rocket 3.7 23:06:13 22° SSW 23:09:03 76° W 23:13:34 10° N
USA 276 1.9 23:07:24 10° WSW 23:10:21 57° S 23:13:19 10° E
Cosmos 1302 Rocket 4.3 23:09:21 14° SW 23:13:50 67° WNW 23:19:02 10° NNE
FALCON 9 DEB 2.8 23:12:17 10° WNW 23:15:35 83° SSW 23:18:51 10° ESE
Cosmos 1821 Rocket 4.0 23:10:15 10° N 23:16:36 89° W 23:20:59 21° S
Cosmos 2058 4.1 23:14:21 19° SE 23:16:37 33° E 23:20:24 10° NNE
Cosmos 2360 Rocket 3.2 23:13:37 10° NNW 23:19:05 45° NE 23:24:31 10° ESE
Cosmos 1825 2.6 23:19:32 22° SW 23:21:42 54° WNW 23:25:23 10° N
SJ 16-02 1.8 23:17:33 10° NNW 23:21:57 58° ENE 23:25:19 16° SE
Cosmos 1869 4.2 23:20:03 10° NNW 23:23:37 36° W 23:25:34 22° SW
BREEZE-M DEB (TANK) 4.1 23:20:02 10° W 23:23:40 62° S 23:38:35 10° ESE
Geosat 4.4 23:22:14 11° SE 23:27:05 64° NE 23:32:04 10° NNW
ERS-2 2.0 23:24:55 10° NNE 23:28:32 83° WNW 23:30:22 27° SSW
Cosmos 1606 2.6 23:29:25 10° N 23:33:16 90° NW 23:35:19 27° S
Nadezhda 3 Rocket 4.0 23:30:29 21° S 23:34:45 80° E 23:40:56 10° NNE
PSLV R/B 3.8 23:32:56 10° NNE 23:37:44 79° ESE 23:40:41 23° S
COSMOS 2406 4.0 23:32:30 10° SW 23:38:06 50° NW 23:43:43 10° NNE
Meteor 2-2 Rocket 4.4 23:35:39 10° NNW 23:41:39 80° ENE 23:46:14 18° SSE
Cosmos 1932 4.4 23:37:53 17° SSW 23:42:50 76° SE 23:49:12 10° NE
Nimbus 7 Rocket 4.4 23:36:58 10° NNE 23:42:55 82° ESE 23:47:07 21° SSW
SL-16 R/B 2.2 23:37:40 10° NNW 23:43:22 75° WSW 23:47:36 18° SSE
Cosmos 1758 Rocket 3.6 23:41:08 24° SSW 23:43:42 76° W 23:48:06 10° N
Meteor 2-20 Rocket 4.5 23:41:09 21° S 23:45:27 82° E 23:51:35 10° NNE
Cosmos 2221 3.2 23:46:04 10° N 23:50:19 51° ENE 23:53:34 16° SSE
Cosmos 1980 Rocket 3.7 23:46:48 10° NW 23:51:04 22° WSW 23:53:57 15° SW
ALOS 2 4.3 23:49:16 14° SW 23:51:36 21° W 23:54:57 10° NW
Cosmos 1812 Rocket 4.5 23:48:01 10° NNW 23:52:09 37° W 23:54:37 20° SW
